Location: Piolenc
(44.1794°N, 4.7641°E)
Time: 04:40:57
(UTC+00:00)

USA 215 - Pass Details

Date: 27 January 2021
Orbit: 1103 x 1105 km, 123.0° (Epoch: 14 February)

Event Time Altitude Azimuth Distance (km) Brightness Sun altitude
Rises 06:15:59 0° 71° (ENE) 3,923 7.1 -8.8°
Reaches altitude 10° 06:18:47 10° 61° (ENE) 2,966 6.2 -8.4°
Maximum altitude 06:24:13 29° 4° (N) 1,898 4.4 -7.4°
Drops below altitude 10° 06:29:39 10° 308° (NW) 2,967 4.9 -6.5°
Enters shadow 06:30:40 - 304° (WNW) 3,299 5.1 -6.3°
